Flag for Germany Weather past 2 weeks in Sonneberg, Thuringia, Germany

Now
46 °F

Sunny.


Feels Like: 46 °F
Forecast: 52 / 67 °F
Wind: No wind

Location: Hof Airport

Current Time: Aug 28, 2014 at 8:15:07 AM

Latest Report: Aug 28, 2014 at 7:50 AM


Visibility: 10 mi

Pressure: 30.12 "Hg

Humidity: 93%

Dew point: 45 °F

Location of SonnebergLocation

Historic Weather in Sonneberg — Graph

°F

Sonneberg temperature yesterday

Maximum temperature yesterday: 63 °F (at 3:20 PM)
Minimum temperature yesterday: 43 °F (at 11:50 PM)
Average temperature yesterday: 52 °F

Past Weeks' High & Low Weather Summary

 TemperatureHumidityPressure
High64 °F (Aug 14, 2:50 PM)94% (Aug 14, 12:20 AM)30.12 "Hg (Aug 14, 12:20 AM)
Low37 °F (Aug 28, 5:50 AM)39% (Aug 22, 2:20 PM)29.68 "Hg (Aug 13, 5:50 PM)
Average53 °F77%29.95 "Hg
* Reported Aug 13 7:20 AM — Aug 28 7:20 AM, Sonneberg, Weather by CustomWeather, © 2014

Note: Actual official high and low records may vary slightly from our data, if they occured in-between our weather recording intervals... More about our weather records

Advertising

Sonneberg weather history for previous 24 hours

 ConditionsComfort  
Time TempWeatherWind HumidityBarometerVisibility
7:20 AM
Aug 28
43 °FSunny.No wind93%30.09 "Hg10 mi
6:50 AM39 °FClear.No wind93%30.09 "Hg10 mi
6:20 AM39 °FFog.No wind93%30.09 "Hg1 mi
5:50 AM37 °FChilly.No wind93%30.09 "Hg1 mi
5:20 AM41 °FQuite cool.No wind87%30.09 "Hg2 mi
4:50 AM39 °FChilly.No wind93%30.09 "Hg1 mi
4:20 AM39 °FChilly.No wind93%30.09 "Hg4 mi
3:50 AM39 °FChilly.3 mph93%30.09 "HgN/A
3:20 AM39 °FChilly.No wind93%30.09 "HgN/A
2:50 AM41 °FQuite cool.No wind93%30.09 "HgN/A
2:20 AM41 °FQuite cool.No wind93%30.09 "HgN/A
1:50 AM41 °FQuite cool.No wind87%30.09 "Hg1 mi
1:20 AM43 °FQuite cool.1 mph93%30.09 "HgN/A
12:50 AM43 °FQuite cool.1 mph87%30.09 "HgN/A
12:20 AM43 °FQuite cool.No wind87%30.09 "HgN/A
11:50 PM
Aug 27
43 °FQuite cool.No wind93%30.09 "HgN/A
11:20 PM45 °FQuite cool.No wind87%30.09 "HgN/A
10:50 PM45 °FQuite cool.2 mph87%30.09 "HgN/A
10:20 PM45 °FQuite cool.3 mph93%30.09 "HgN/A
9:50 PM46 °FCool.3 mph93%30.09 "HgN/A
9:20 PM46 °FCool.2 mph93%30.09 "HgN/A
8:50 PM48 °FCool.3 mph87%30.09 "HgN/A
7:50 PM52 °FSunny.No wind82%30.07 "Hg10 mi
7:20 PM55 °FSunny.3 mph72%30.07 "Hg10 mi
6:20 PM63 °FPassing clouds.5 mph45%30.07 "HgN/A
4:20 PM59 °FPassing clouds.8 mph51%30.04 "HgN/A
3:50 PM61 °FPassing clouds.8 mph48%30.04 "HgN/A
3:20 PM63 °FPassing clouds.7 mph42%30.04 "HgN/A
2:50 PM59 °FPassing clouds.6 mph55%30.04 "HgN/A
2:20 PM61 °FPassing clouds.7 mph48%30.04 "HgN/A
1:50 PM59 °FPartly sunny.7 mph55%30.04 "HgN/A
1:20 PM61 °FPassing clouds.6 mph48%30.04 "HgN/A
12:20 PM57 °FPassing clouds.7 mph59%30.01 "HgN/A
11:50 AM57 °FScattered clouds.6 mph72%30.01 "HgN/A
11:20 AM57 °FPartly sunny.8 mph67%30.01 "HgN/A
10:50 AM57 °FPassing clouds.8 mph63%29.98 "HgN/A
10:20 AM55 °FPassing clouds.9 mph67%29.98 "HgN/A
9:50 AM54 °FScattered clouds.9 mph82%29.98 "Hg6 mi
9:20 AM52 °FScattered clouds.8 mph88%29.95 "Hg5 mi
8:50 AM50 °FBroken clouds.7 mph94%29.95 "Hg4 mi
8:20 AM50 °FPartly sunny.8 mph94%29.92 "Hg3 mi
Weather by CustomWeather, © 2014

See weather overviewHow to use our weather pages